EN

Hourly Weather Abazivka

Today, 18 June, Friday

Time Temperature Precipitation Wind Pressure Humidity
00:00 +20°C° 0.2 mm 6 mps 751 mmHg 94%
01:00 +20°C° 0.2 mm 6 mps 751 mmHg 95%
02:00 +20°C° 0 mm 6 mps 751 mmHg 94%
03:00 +20°C° 0 mm 6 mps 752 mmHg 94%
04:00 +20°C° 0 mm 6 mps 752 mmHg 93%
05:00 +19°C° 0 mm 6 mps 752 mmHg 93%
06:00 +20°C° 0 mm 6 mps 752 mmHg 92%
07:00 +20°C° 0 mm 6 mps 753 mmHg 90%
08:00 +21°C° 0 mm 5 mps 753 mmHg 89%
09:00 +21°C° 0.1 mm 5 mps 753 mmHg 87%
10:00 +22°C° 0.1 mm 5 mps 754 mmHg 84%
11:00 +23°C° 0.1 mm 5 mps 754 mmHg 82%
12:00 +23°C° 0.5 mm 5 mps 754 mmHg 81%
13:00 +22°C° 0.5 mm 6 mps 754 mmHg 81%
14:00 +22°C° 0.5 mm 6 mps 754 mmHg 80%
15:00 +22°C° 0 mm 5 mps 754 mmHg 80%
16:00 +22°C° 0 mm 5 mps 754 mmHg 80%
17:00 +21°C° 0 mm 4 mps 754 mmHg 80%
18:00 +21°C° 0.1 mm 5 mps 754 mmHg 81%
19:00 +21°C° 0.1 mm 5 mps 754 mmHg 82%
20:00 +20°C° 0.1 mm 5 mps 754 mmHg 83%
21:00 +20°C° 0 mm 5 mps 754 mmHg 83%
22:00 +20°C° 0 mm 4 mps 754 mmHg 83%
23:00 +20°C° 0 mm 4 mps 754 mmHg 83%

Tomorrow, 19 June, Saturday

Time Temperature Precipitation Wind Pressure Humidity
00:00 +20°C° 0 mm 4 mps 754 mmHg 84%
01:00 +20°C° 0 mm 4 mps 754 mmHg 85%
02:00 +20°C° 0 mm 4 mps 754 mmHg 86%
03:00 +19°C° 0 mm 4 mps 754 mmHg 87%
04:00 +19°C° 0 mm 5 mps 754 mmHg 87%
05:00 +19°C° 0 mm 5 mps 754 mmHg 88%
06:00 +20°C° 0 mm 5 mps 754 mmHg 83%
07:00 +21°C° 0 mm 6 mps 754 mmHg 79%
08:00 +22°C° 0 mm 7 mps 754 mmHg 74%
09:00 +23°C° 0 mm 7 mps 754 mmHg 71%
10:00 +24°C° 0 mm 7 mps 754 mmHg 69%
11:00 +26°C° 0 mm 7 mps 754 mmHg 66%
12:00 +26°C° 0 mm 7 mps 753 mmHg 66%
13:00 +27°C° 0 mm 7 mps 753 mmHg 66%
14:00 +28°C° 0 mm 7 mps 753 mmHg 65%
15:00 +27°C° 0 mm 7 mps 753 mmHg 67%
16:00 +27°C° 0 mm 7 mps 753 mmHg 68%
17:00 +27°C° 0 mm 6 mps 753 mmHg 70%
18:00 +26°C° 0 mm 6 mps 753 mmHg 73%
19:00 +23°C° 0 mm 5 mps 753 mmHg 77%
20:00 +22°C° 0 mm 5 mps 753 mmHg 80%
21:00 +22°C° 0 mm 5 mps 753 mmHg 81%
22:00 +21°C° 0 mm 5 mps 753 mmHg 82%
23:00 +21°C° 0 mm 5 mps 753 mmHg 83%

Day after tomorrow, 20 June, Sunday

Time Temperature Precipitation Wind Pressure Humidity
00:00 +20°C° 0 mm 6 mps 753 mmHg 80%
01:00 +20°C° 0 mm 6 mps 752 mmHg 77%
02:00 +19°C° 0 mm 6 mps 752 mmHg 74%
03:00 +19°C° 0 mm 6 mps 752 mmHg 74%
04:00 +17°C° 0 mm 6 mps 752 mmHg 74%
05:00 +17°C° 0 mm 6 mps 752 mmHg 74%
06:00 +19°C° 0 mm 6 mps 752 mmHg 72%
07:00 +20°C° 0 mm 7 mps 752 mmHg 69%
08:00 +22°C° 0 mm 7 mps 752 mmHg 67%
09:00 +22°C° 0 mm 7 mps 752 mmHg 66%
10:00 +23°C° 0 mm 7 mps 752 mmHg 65%
11:00 +24°C° 0 mm 6 mps 751 mmHg 64%
12:00 +24°C° 0 mm 6 mps 751 mmHg 65%
13:00 +24°C° 0 mm 6 mps 751 mmHg 67%
14:00 +24°C° 0 mm 6 mps 751 mmHg 68%
15:00 +26°C° 0 mm 6 mps 751 mmHg 69%
16:00 +26°C° 0 mm 7 mps 751 mmHg 69%
17:00 +26°C° 0 mm 7 mps 750 mmHg 70%
18:00 +24°C° 0 mm 6 mps 750 mmHg 73%
19:00 +23°C° 0 mm 6 mps 750 mmHg 77%
20:00 +21°C° 0 mm 5 mps 750 mmHg 80%
21:00 +21°C° 0 mm 5 mps 750 mmHg 82%
22:00 +20°C° 0 mm 5 mps 750 mmHg 84%
23:00 +20°C° 0 mm 5 mps 750 mmHg 85%

21 June, Monday

Time Temperature Precipitation Wind Pressure Humidity
00:00 +19°C° 0 mm 4 mps 749 mmHg 84%
01:00 +19°C° 0 mm 4 mps 749 mmHg 83%
02:00 +19°C° 0 mm 4 mps 749 mmHg 83%
03:00 +19°C° 0 mm 4 mps 749 mmHg 83%
04:00 +19°C° 0 mm 4 mps 749 mmHg 83%
05:00 +19°C° 0 mm 4 mps 749 mmHg 83%
06:00 +20°C° 0 mm 4 mps 749 mmHg 77%
07:00 +22°C° 0 mm 5 mps 749 mmHg 71%
08:00 +25°C° 0 mm 5 mps 749 mmHg 66%
09:00 +26°C° 0 mm 6 mps 749 mmHg 63%
10:00 +27°C° 0 mm 6 mps 749 mmHg 59%
11:00 +28°C° 0 mm 6 mps 749 mmHg 56%
12:00 +29°C° 0 mm 6 mps 749 mmHg 55%
13:00 +29°C° 0 mm 6 mps 749 mmHg 55%
14:00 +30°C° 0 mm 5 mps 749 mmHg 54%
15:00 +30°C° 0 mm 5 mps 749 mmHg 57%
16:00 +29°C° 0 mm 5 mps 749 mmHg 60%
17:00 +29°C° 0 mm 5 mps 749 mmHg 63%
18:00 +27°C° 0 mm 4 mps 749 mmHg 68%
19:00 +26°C° 0 mm 4 mps 749 mmHg 73%
20:00 +24°C° 0 mm 3 mps 749 mmHg 78%
21:00 +22°C° 0 mm 3 mps 749 mmHg 78%
22:00 +22°C° 0 mm 3 mps 749 mmHg 77%
23:00 +21°C° 0 mm 3 mps 749 mmHg 76%

22 June, Tuesday

Time Temperature Precipitation Wind Pressure Humidity
00:00 +21°C° 0 mm 3 mps 749 mmHg 75%
01:00 +20°C° 0 mm 4 mps 749 mmHg 75%
02:00 +20°C° 0 mm 4 mps 749 mmHg 74%
03:00 +20°C° 0 mm 4 mps 749 mmHg 75%
04:00 +20°C° 0 mm 4 mps 749 mmHg 76%
05:00 +20°C° 0 mm 5 mps 749 mmHg 77%
06:00 +21°C° 0 mm 5 mps 749 mmHg 73%
07:00 +23°C° 0 mm 5 mps 749 mmHg 69%
08:00 +25°C° 0 mm 5 mps 749 mmHg 65%
09:00 +27°C° 0 mm 6 mps 749 mmHg 61%
10:00 +28°C° 0 mm 6 mps 749 mmHg 56%
11:00 +29°C° 0 mm 6 mps 749 mmHg 52%
12:00 +30°C° 0 mm 6 mps 749 mmHg 52%
13:00 +32°C° 0 mm 6 mps 749 mmHg 52%
14:00 +32°C° 0 mm 6 mps 749 mmHg 52%
15:00 +30°C° 0 mm 5 mps 749 mmHg 55%
16:00 +30°C° 0 mm 5 mps 749 mmHg 58%
17:00 +29°C° 0 mm 4 mps 749 mmHg 61%
18:00 +28°C° 0 mm 4 mps 749 mmHg 66%
19:00 +26°C° 0 mm 4 mps 749 mmHg 70%
20:00 +25°C° 0 mm 3 mps 749 mmHg 75%
21:00 +24°C° 0 mm 3 mps 749 mmHg 75%
22:00 +22°C° 0 mm 3 mps 749 mmHg 76%
23:00 +22°C° 0 mm 3 mps 749 mmHg 76%

23 June, Wednesday

Time Temperature Precipitation Wind Pressure Humidity
00:00 +22°C° 0 mm 3 mps 749 mmHg 78%
01:00 +21°C° 0 mm 4 mps 749 mmHg 80%
02:00 +21°C° 0 mm 4 mps 749 mmHg 81%
03:00 +21°C° 0 mm 4 mps 749 mmHg 81%
04:00 +21°C° 0 mm 4 mps 749 mmHg 82%
05:00 +21°C° 0 mm 4 mps 749 mmHg 82%
06:00 +22°C° 0 mm 5 mps 749 mmHg 77%
07:00 +25°C° 0 mm 5 mps 749 mmHg 71%
08:00 +26°C° 0 mm 6 mps 749 mmHg 66%
09:00 +27°C° 0 mm 6 mps 749 mmHg 65%
10:00 +28°C° 0 mm 6 mps 749 mmHg 64%
11:00 +29°C° 0 mm 6 mps 750 mmHg 63%
12:00 +29°C° 0 mm 5 mps 750 mmHg 64%
13:00 +30°C° 0 mm 5 mps 750 mmHg 65%
14:00 +30°C° 0 mm 4 mps 750 mmHg 67%
15:00 +29°C° 0 mm 4 mps 750 mmHg 70%
16:00 +29°C° 0 mm 4 mps 750 mmHg 73%
17:00 +28°C° 0 mm 4 mps 751 mmHg 76%
18:00 +27°C° 0 mm 4 mps 751 mmHg 77%
19:00 +26°C° 0 mm 3 mps 751 mmHg 78%
20:00 +25°C° 0 mm 3 mps 751 mmHg 79%
21:00 +25°C° 0 mm 3 mps 751 mmHg 78%
22:00 +24°C° 0 mm 2 mps 751 mmHg 78%
23:00 +24°C° 0 mm 2 mps 751 mmHg 77%
Show more